• In Czech Republic
  • List of Countries
  • For 7 days
  • Water Temperature
  • Satellite Maps
  • Weather Map
  • Weather Widgets
  • user-avatar
    Login

    Hourly Weather Arcos de la Frontera

    Today, 17 August, Friday

    Time Temperature Precipitation Wind Pressure Humidity
    00:00 +23°C° 0 mm 1 mps 755 mmHg 77%
    01:00 +23°C° 0 mm 1 mps 755 mmHg 78%
    02:00 +23°C° 0 mm 1 mps 755 mmHg 79%
    03:00 +22°C° 0 mm 1 mps 755 mmHg 80%
    04:00 +20°C° 0 mm 0 mps 755 mmHg 81%
    05:00 +20°C° 0 mm 0 mps 755 mmHg 81%
    06:00 +20°C° 0 mm 0 mps 755 mmHg 81%
    07:00 +23°C° 0 mm 0 mps 755 mmHg 72%
    08:00 +27°C° 0 mm 1 mps 755 mmHg 62%
    09:00 +29°C° 0 mm 1 mps 755 mmHg 53%
    10:00 +31°C° 0 mm 1 mps 755 mmHg 47%
    11:00 +34°C° 0 mm 2 mps 755 mmHg 41%
    12:00 +34°C° 0 mm 2 mps 755 mmHg 40%
    13:00 +35°C° 0 mm 3 mps 755 mmHg 37%
    14:00 +36°C° 0 mm 3 mps 754 mmHg 35%
    15:00 +36°C° 0 mm 3 mps 754 mmHg 33%
    16:00 +36°C° 0 mm 3 mps 754 mmHg 34%
    17:00 +35°C° 0 mm 3 mps 753 mmHg 36%
    18:00 +34°C° 0 mm 3 mps 753 mmHg 38%
    19:00 +31°C° 0 mm 2 mps 753 mmHg 43%
    20:00 +29°C° 0 mm 2 mps 753 mmHg 48%
    21:00 +28°C° 0 mm 2 mps 754 mmHg 54%
    22:00 +27°C° 0 mm 2 mps 754 mmHg 55%
    23:00 +27°C° 0 mm 1 mps 754 mmHg 56%

    Tomorrow, 18 August, Saturday

    Time Temperature Precipitation Wind Pressure Humidity
    00:00 +26°C° 0 mm 1 mps 754 mmHg 58%
    01:00 +26°C° 0 mm 1 mps 754 mmHg 58%
    02:00 +26°C° 0 mm 2 mps 753 mmHg 58%
    03:00 +26°C° 0 mm 2 mps 753 mmHg 59%
    04:00 +25°C° 0 mm 2 mps 753 mmHg 59%
    05:00 +25°C° 0 mm 2 mps 753 mmHg 59%
    06:00 +25°C° 0 mm 2 mps 753 mmHg 60%
    07:00 +27°C° 0 mm 3 mps 753 mmHg 53%
    08:00 +29°C° 0 mm 3 mps 754 mmHg 46%
    09:00 +33°C° 0 mm 4 mps 754 mmHg 39%
    10:00 +34°C° 0 mm 4 mps 754 mmHg 35%
    11:00 +36°C° 0 mm 4 mps 753 mmHg 31%
    12:00 +38°C° 0 mm 4 mps 753 mmHg 27%
    13:00 +38°C° 0 mm 4 mps 753 mmHg 27%
    14:00 +38°C° 0 mm 4 mps 753 mmHg 26%
    15:00 +40°C° 0 mm 4 mps 752 mmHg 25%
    16:00 +39°C° 0 mm 5 mps 752 mmHg 27%
    17:00 +37°C° 0 mm 5 mps 752 mmHg 30%
    18:00 +36°C° 0 mm 5 mps 752 mmHg 33%
    19:00 +34°C° 0 mm 5 mps 752 mmHg 38%
    20:00 +32°C° 0 mm 4 mps 753 mmHg 43%
    21:00 +29°C° 0 mm 4 mps 753 mmHg 48%
    22:00 +29°C° 0 mm 4 mps 753 mmHg 51%
    23:00 +28°C° 0 mm 3 mps 753 mmHg 54%

    Day after tomorrow, 19 August, Sunday

    Time Temperature Precipitation Wind Pressure Humidity
    00:00 +27°C° 0 mm 3 mps 753 mmHg 56%
    01:00 +27°C° 0 mm 3 mps 753 mmHg 58%
    02:00 +27°C° 0 mm 3 mps 753 mmHg 60%
    03:00 +26°C° 0 mm 3 mps 753 mmHg 62%
    04:00 +26°C° 0 mm 3 mps 753 mmHg 63%
    05:00 +26°C° 0 mm 3 mps 753 mmHg 63%
    06:00 +26°C° 0 mm 3 mps 753 mmHg 64%
    07:00 +28°C° 0 mm 3 mps 753 mmHg 56%
    08:00 +30°C° 0 mm 4 mps 754 mmHg 48%
    09:00 +33°C° 0 mm 4 mps 754 mmHg 40%
    10:00 +35°C° 0 mm 4 mps 754 mmHg 37%
    11:00 +36°C° 0 mm 5 mps 754 mmHg 34%
    12:00 +39°C° 0 mm 5 mps 754 mmHg 30%
    13:00 +39°C° 0 mm 5 mps 753 mmHg 30%
    14:00 +39°C° 0 mm 5 mps 753 mmHg 30%
    15:00 +39°C° 0 mm 6 mps 753 mmHg 30%
    16:00 +39°C° 0 mm 6 mps 753 mmHg 32%
    17:00 +37°C° 0 mm 5 mps 752 mmHg 35%
    18:00 +36°C° 0 mm 5 mps 752 mmHg 38%
    19:00 +34°C° 0 mm 5 mps 753 mmHg 44%
    20:00 +32°C° 0 mm 5 mps 753 mmHg 50%
    21:00 +29°C° 0 mm 4 mps 754 mmHg 56%
    22:00 +29°C° 0 mm 4 mps 754 mmHg 58%
    23:00 +28°C° 0 mm 4 mps 754 mmHg 60%

    20 August, Monday

    Time Temperature Precipitation Wind Pressure Humidity
    00:00 +28°C° 0 mm 4 mps 754 mmHg 63%
    01:00 +27°C° 0 mm 3 mps 753 mmHg 64%
    02:00 +27°C° 0 mm 3 mps 753 mmHg 65%
    03:00 +26°C° 0 mm 3 mps 753 mmHg 66%
    04:00 +26°C° 0 mm 3 mps 753 mmHg 67%
    05:00 +26°C° 0 mm 3 mps 753 mmHg 68%
    06:00 +26°C° 0 mm 3 mps 754 mmHg 68%
    07:00 +28°C° 0 mm 3 mps 754 mmHg 59%
    08:00 +30°C° 0 mm 4 mps 754 mmHg 50%
    09:00 +33°C° 0 mm 4 mps 754 mmHg 41%
    10:00 +34°C° 0 mm 4 mps 754 mmHg 37%
    11:00 +36°C° 0 mm 4 mps 754 mmHg 32%
    12:00 +38°C° 0 mm 4 mps 754 mmHg 28%
    13:00 +38°C° 0 mm 4 mps 753 mmHg 27%
    14:00 +40°C° 0 mm 5 mps 753 mmHg 26%
    15:00 +40°C° 0 mm 5 mps 752 mmHg 25%
    16:00 +39°C° 0 mm 5 mps 752 mmHg 28%
    17:00 +37°C° 0 mm 5 mps 752 mmHg 31%
    18:00 +36°C° 0 mm 5 mps 752 mmHg 34%
    19:00 +34°C° 0 mm 5 mps 753 mmHg 39%
    20:00 +32°C° 0 mm 5 mps 753 mmHg 45%
    21:00 +29°C° 0 mm 4 mps 753 mmHg 51%
    22:00 +29°C° 0 mm 4 mps 753 mmHg 52%
    23:00 +28°C° 0 mm 4 mps 753 mmHg 53%

    21 August, Tuesday

    Time Temperature Precipitation Wind Pressure Humidity
    00:00 +28°C° 0 mm 4 mps 753 mmHg 55%
    01:00 +28°C° 0 mm 4 mps 753 mmHg 55%
    02:00 +27°C° 0 mm 4 mps 753 mmHg 56%
    03:00 +27°C° 0 mm 4 mps 753 mmHg 57%
    04:00 +27°C° 0 mm 3 mps 753 mmHg 57%
    05:00 +26°C° 0 mm 3 mps 753 mmHg 58%
    06:00 +26°C° 0 mm 3 mps 753 mmHg 58%
    07:00 +28°C° 0 mm 3 mps 753 mmHg 50%
    08:00 +30°C° 0 mm 4 mps 754 mmHg 42%
    09:00 +33°C° 0 mm 4 mps 754 mmHg 33%
    10:00 +35°C° 0 mm 4 mps 754 mmHg 29%
    11:00 +36°C° 0 mm 4 mps 753 mmHg 26%
    12:00 +38°C° 0 mm 4 mps 753 mmHg 22%
    13:00 +38°C° 0 mm 4 mps 753 mmHg 22%
    14:00 +40°C° 0 mm 5 mps 752 mmHg 22%
    15:00 +40°C° 0 mm 5 mps 752 mmHg 21%
    16:00 +39°C° 0 mm 5 mps 752 mmHg 24%
    17:00 +37°C° 0 mm 5 mps 752 mmHg 26%
    18:00 +36°C° 0 mm 5 mps 752 mmHg 28%
    19:00 +34°C° 0 mm 5 mps 752 mmHg 32%
    20:00 +32°C° 0 mm 5 mps 752 mmHg 37%
    21:00 +29°C° 0 mm 4 mps 753 mmHg 41%
    22:00 +29°C° 0 mm 4 mps 753 mmHg 43%
    23:00 +28°C° 0 mm 4 mps 753 mmHg 46%

    22 August, Wednesday

    Time Temperature Precipitation Wind Pressure Humidity
    00:00 +28°C° 0 mm 4 mps 753 mmHg 48%
    01:00 +27°C° 0 mm 4 mps 753 mmHg 49%
    02:00 +27°C° 0 mm 3 mps 753 mmHg 51%
    03:00 +26°C° 0 mm 3 mps 753 mmHg 53%
    04:00 +26°C° 0 mm 3 mps 753 mmHg 53%
    05:00 +26°C° 0 mm 2 mps 753 mmHg 54%
    06:00 +25°C° 0 mm 2 mps 753 mmHg 54%
    07:00 +28°C° 0 mm 3 mps 753 mmHg 47%
    08:00 +30°C° 0 mm 3 mps 753 mmHg 40%
    09:00 +33°C° 0 mm 3 mps 753 mmHg 33%
    10:00 +35°C° 0 mm 3 mps 753 mmHg 29%
    11:00 +37°C° 0 mm 3 mps 753 mmHg 25%
    12:00 +38°C° 0 mm 3 mps 753 mmHg 22%
    13:00 +40°C° 0 mm 4 mps 753 mmHg 21%
    14:00 +40°C° 0 mm 4 mps 752 mmHg 20%
    15:00 +40°C° 0 mm 4 mps 752 mmHg 20%
    16:00 +38°C° 0 mm 4 mps 752 mmHg 22%
    17:00 +37°C° 0 mm 4 mps 752 mmHg 24%
    18:00 +36°C° 0 mm 5 mps 752 mmHg 26%
    19:00 +34°C° 0 mm 4 mps 752 mmHg 31%
    20:00 +32°C° 0 mm 4 mps 753 mmHg 36%
    21:00 +29°C° 0 mm 3 mps 753 mmHg 42%
    22:00 +29°C° 0 mm 3 mps 753 mmHg 44%
    23:00 +28°C° 0 mm 3 mps 753 mmHg 46%
    Show more